Location: *
(58.4167°N, 22.5000°E)
Time: 02:08:53
(UTC+00:00)

NOSS 2-1 (E) - Pass Details

Date: 22 September 2019
Orbit: 462 x 1742 km, 63.3° (Epoch: 13 October)

Event Time Altitude Azimuth Distance (km) Brightness Sun altitude
Rises 19:34:16 0° 295° (WNW) 2,789 8.2 -22.7°
Reaches altitude 10° 19:36:16 10° 300° (WNW) 2,001 7.2 -22.9°
Maximum altitude 19:40:43 62° 21° (NNE) 855 4.2 -23.3°
Enters shadow 19:42:22 42° 81° (E) 1,143 4.6 -23.4°
